CAPE
389 106 214 176 113 135 188 278 281 293 297 268 314 357 376 609 673 483 341 298 315 254 186 356 389 747 663 658 578 605 695 877 905
645 326 279 244 134 113 142 151 216 236 266 261 286 312 317 306 501 555 487 386 276 366 278 271 316 358 547 696 673 795 835 807 965
719 761 454 348 292 251 177 136 141 320 299 257 271 301 367 352 396 514 471 458 286 433 453 305 491 421 432 484 729 799 880 980 936
669 469 761 705 548 405 300 160 166 219 106 267 264 261 371 377 367 430 529 401 323 408 340 452 460 435 442 581 702 802 785 853 880
738 471 677 813 522 491 427 335 228 239 127 196 253 202 205 369 403 390 413 513 522 485 476 317 520 618 713 602 719 740 792 1036 1205
625 708 554 482 471 430 414 400 363 243 179 214 327 257 264 249 249 295 361 364 412 540 555 443 496 560 547 652 712 648 723 843 893
203 539 686 658 571 473 404 351 310 282 241 186 394 326 278 231 332 284 287 312 277 329 486 550 555 762 670 726 741 751 884 911 943
283 345 468 424 368 344 246 224 292 465 352 454 462 453 398 293 298 276 339 326 306 263 366 513 556 730 797 756 804 725 936 934 940
533 392 366 394 361 331 330 408 452 377 346 562 717 507 458 407 342 316 397 416 347 315 296 365 431 677 606 606 622 660 830 831 685
377 423 359 294 258 226 118 61 70 101 111 138 276 387 498 599 527 328 247 283 238 280 318 330 357 470 571 449 459 586 707 677 571
109 180 134 174 256 253 169 41 33 2 0 12 14 30 189 620 622 363 228 259 165 215 248 292 380 351 375 390 384 515 577 539 591
34 54 70 37 63 85 61 30 12 8 0 0 0 0 1 26 115 164 122 208 172 162 251 252 299 290 216 337 335 368 399 538 651
51 39 55 53 1 1 27 17 92 9 3 2 0 0 0 0 20 21 40 36 78 84 69 87 148 234 255 286 279 235 341 461 238
0 2 30 113 128 76 51 3 184 58 33 0 0 0 0 0 0 2 10 132 119 98 106 79 44 205 196 174 197 181 150 93 77
1 5 29 31 79 6 36 17 102 171 13 0 0 0 0 15 1 10 8 6 16 65 48 48 86 163 145 139 135 99 81 85 66
5 0 3 28 77 44 134 208 327 272 1 0 0 0 0 1 58 50 28 20 94 133 12 43 48 143 87 95 127 135 115 95 101
22 15 71 35 73 48 157 456 454 164 0 0 7 3 8 1 0 2 82 33 2 39 21 39 131 53 97 132 140 93 102 109 50
48 38 24 23 56 95 371 636 596 105 3 0 12 25 16 22 1 1 7 7 12 26 36 61 62 20 60 58 68 23 10 0 3
4 13 40 227 119 222 293 649 652 406 0 2 8 29 51 25 36 41 29 23 3 8 22 25 23 5 1 2 14 13 7 30 48
0 0 2 46 313 410 425 469 414 655 170 12 29 36 45 43 30 34 45 60 47 51 81 51 50 41 32 15 10 36 49 58 36
CIN
-139 -75 -37 -58 -36 -234 -225 -193 -182 -166 -135 -180 -152 -128 -127 -94 -57 -44 -55 -51 -45 -42 -140 -39 -10 -12 -31 -36 -45 -124 -58 -43 -30
-67 -75 -31 -44 -60 -257 -219 -184 -162 -187 -149 -197 -167 -171 -104 -128 -97 -58 -51 -44 -58 -28 -40 -182 -49 -146 -38 -120 -133 -118 -27 -19 -82
-127 -91 -80 -54 -54 -51 -68 -159 -148 -241 -210 -140 -138 -130 -86 -188 -106 -48 -53 -33 -78 -54 -34 -122 -168 -98 -26 -103 -123 -114 -106 -18 -8
-122 -135 -77 -51 -63 -87 -74 -84 -233 -161 -219 -165 -111 -125 -137 -161 -133 -77 -47 -29 -65 -44 -35 -50 -41 -135 -91 -60 -140 -123 -94 -73 -20
-112 -84 -94 -52 -103 -87 -78 -55 -70 -266 -124 -254 -231 -208 -93 -128 -123 -96 -67 -49 -52 -42 -29 -33 -169 -129 -31 -33 -150 -132 -108 -78 -64
-159 -127 -63 -49 -74 -66 -64 -58 -44 -50 -49 -242 -192 -120 -181 -131 -213 -148 -106 -54 -102 -56 -34 -154 -152 -129 -66 -29 -140 -135 -129 -105 -86
-171 -146 -99 -85 -95 -87 -75 -71 -75 -62 -59 -96 -151 -116 -130 -107 -196 -213 -192 -114 -58 -137 -92 -101 -119 -32 -39 -126 -124 -108 -91 -79 -67
-161 -236 -239 -221 -191 -174 -142 -123 -146 -118 -172 -121 -107 -138 -149 -222 -232 -249 -196 -156 -117 -132 -114 -102 -105 -21 -18 -23 -94 -90 -77 -69 -59
-131 -96 -180 -150 -159 -174 -172 -177 -144 -105 -91 -46 -7 -13 -59 -111 -75 -113 -88 -112 -147 -124 -114 -102 -44 -18 -17 -95 -90 -58 -39 -27 -26
-146 -170 -116 -92 -85 -74 -52 -144 -177 -168 -155 -116 -71 -33 -3 -1 -1 -11 -104 -114 -124 -147 -109 -87 -89 -24 -14 -65 -30 -23 -34 -21 -29
-268 -209 -179 -124 -86 -63 -48 -62 -274 -1 0 -177 -200 -144 -55 0 -2 -2 -27 -28 -64 -85 -73 -76 -39 -24 -27 -23 -20 -23 -27 -30 -22
-263 -249 -187 -150 -133 -95 -61 -63 -291 -218 0 0 0 0 0 -87 -10 -2 -6 -2 -20 -37 -66 -69 -44 -43 -32 -23 -16 -18 -26 -20 -7
-211 -202 -170 -164 -6 -9 -79 -188 -134 -202 0 0 0 0 0 0 0 -69 -36 -32 -14 -70 -51 -18 -50 -55 -24 -12 -8 -13 -15 -10 -21
0 0 -86 -98 -108 -74 -60 -16 -72 -96 -77 0 0 0 0 0 0 0 -2 -6 0 -5 -14 -2 -59 -25 -11 -20 -9 -8 -18 -15 -13
0 -4 -64 -149 -117 -12 -154 -197 -112 -21 -122 0 0 0 0 -139 0 -2 -7 -1 -51 -54 -7 -1 -10 -17 -21 -23 -11 -13 -12 -6 -7
-57 0 0 -108 -113 -180 -169 -128 -42 -5 -6 0 0 0 0 -13 -72 -85 -4 -17 -28 -18 -16 0 0 -6 -16 -16 -9 0 0 0 0
-63 -105 -78 -135 -128 -132 -163 -69 -36 -53 0 0 -12 -1 -9 -31 0 0 -29 -18 0 -12 -36 -1 0 0 0 0 0 0 0 0 0
-70 -58 -89 -138 -163 -182 -107 -55 -27 -97 -38 0 -45 -3 -2 0 -2 0 -3 -3 -6 0 -15 0 0 -1 0 0 0 0 0 -1 -1
-33 -106 -89 -66 -127 -130 -107 -40 -12 -16 0 -67 -64 -25 -6 -14 -7 0 -3 -1 0 0 0 0 0 0 0 -1 -6 -26 -44 -27 -7
0 0 -5 -114 -48 -29 -47 -34 -15 0 -17 -82 -57 -34 -19 -12 -4 -18 -3 0 -4 -6 0 -2 -6 -15 -13 -7 -8 -7 0 -8 -2
Wind_Speed
10 10 6 5 10 11 13 10 6 7 6 6 7 5 4 7 7 10 13 14 17 18 18 18 13 12 13 10 10 9 9 7 5
15 15 10 11 6 12 14 17 13 12 10 11 11 8 8 9 10 12 14 16 19 20 19 18 14 15 12 10 10 9 11 8 6
15 14 11 8 8 10 13 18 24 20 16 13 13 11 13 13 12 13 14 17 17 18 18 18 18 15 14 13 12 11 12 10 7
13 12 15 10 6 9 13 16 22 21 16 14 11 12 13 15 16 16 17 16 17 18 19 18 16 17 14 14 13 13 13 11 10
21 22 23 17 13 14 14 15 18 16 29 15 17 9 19 19 24 22 18 18 17 18 18 21 19 19 15 15 15 14 12 11 13
21 23 23 24 21 19 17 15 18 15 23 27 22 28 24 22 21 25 20 20 21 21 21 20 19 18 18 17 16 15 14 15 13
19 15 20 23 22 21 18 18 15 13 13 21 28 31 30 23 28 25 23 24 25 22 22 20 19 19 21 20 19 17 19 18 17
20 21 23 26 27 28 24 24 21 17 17 19 24 31 30 22 24 28 24 27 28 26 24 22 24 23 25 25 23 22 22 21 20
19 24 30 29 30 34 35 29 26 25 22 23 25 22 22 20 39 38 33 31 31 28 28 26 28 26 27 28 29 26 24 24 24
25 23 29 31 27 30 36 nan nan 35 32 28 25 23 23 23 30 26 27 33 34 34 30 31 27 28 30 30 33 33 31 29 29
22 22 28 29 26 25 29 nan nan nan nan nan nan nan 22 20 25 28 28 31 28 38 39 35 32 31 31 33 37 38 38 33 34
nan nan nan nan nan nan nan nan nan nan nan nan nan nan nan nan 22 25 30 36 40 45 44 42 36 39 40 39 37 39 41 40 38
nan nan nan nan nan nan nan nan nan nan nan nan nan nan nan nan nan nan nan nan nan nan nan nan 37 46 46 46 43 43 46 40 40
nan nan nan 33 30 nan nan nan 25 nan nan nan nan nan nan nan nan nan nan 27 29 nan 38 nan nan 53 52 49 47 49 48 nan nan
nan nan nan nan nan nan nan nan 29 27 nan nan nan nan nan nan nan nan nan nan nan nan nan nan nan 51 51 52 52 nan nan nan nan
nan nan nan nan nan nan 25 26 25 28 nan nan nan nan nan nan nan nan nan nan nan 38 nan nan nan 45 nan nan 56 61 62 nan 59
nan nan nan nan nan nan 23 23 24 21 nan nan nan nan nan nan nan nan nan nan nan nan nan nan 39 nan nan 64 56 nan 49 48 nan
nan nan nan nan nan nan 23 24 23 19 nan nan nan nan nan nan nan nan nan nan nan nan nan nan nan nan nan nan nan nan nan nan nan
nan nan nan 8 11 19 20 18 19 17 nan nan nan nan nan nan nan nan nan nan nan nan nan nan nan nan nan nan nan nan nan nan nan
nan nan nan nan 14 18 16 17 18 17 14 nan nan nan nan nan nan nan nan nan nan nan nan nan nan nan nan nan nan nan nan nan nan
Wind_Direction
294 350 309 309 258 266 278 287 260 247 207 216 244 225 148 153 172 181 174 187 193 193 206 212 223 228 223 221 232 234 247 239 255
300 315 328 338 297 265 259 270 263 256 229 204 208 226 203 183 175 191 181 184 197 203 206 208 211 222 225 220 237 243 252 239 234
277 289 304 314 322 321 294 274 256 259 233 251 219 216 220 211 188 189 186 192 193 200 204 213 217 218 219 230 235 242 255 249 240
241 281 294 289 279 258 284 278 286 268 267 238 249 269 240 231 220 206 193 195 194 199 210 221 226 236 243 242 239 244 255 260 259
245 261 287 295 293 288 303 303 292 271 269 236 268 311 242 240 231 221 210 199 203 217 214 219 219 229 234 249 252 249 256 266 270
271 270 267 266 271 277 281 298 307 316 268 256 248 262 253 244 240 242 220 212 214 217 223 226 228 227 231 239 249 255 253 260 263
276 284 286 274 270 262 265 262 274 297 326 265 259 263 248 242 253 239 238 232 228 224 230 232 235 246 249 248 247 250 250 252 258
285 278 268 251 245 240 246 243 243 244 257 276 276 292 278 277 246 261 229 239 244 240 232 237 244 245 249 252 248 246 252 259 265
284 279 273 263 247 241 240 241 242 239 252 258 263 293 271 275 259 264 253 239 247 247 247 240 246 252 256 255 251 253 261 263 263
291 285 282 279 270 258 245 nan nan 245 249 255 255 259 266 276 277 285 277 260 251 249 249 249 244 244 252 260 260 262 261 263 259
291 290 289 281 277 266 255 nan nan nan nan nan nan nan 252 257 280 287 274 265 258 249 251 248 248 245 248 251 258 264 263 265 262
nan nan nan nan nan nan nan nan nan nan nan nan nan nan nan nan 280 279 276 269 281 263 246 242 245 249 255 254 251 261 262 265 259
nan nan nan nan nan nan nan nan nan nan nan nan nan nan nan nan nan nan nan nan nan nan nan nan 245 250 249 253 253 252 260 260 257
nan nan nan 274 268 nan nan nan 261 nan nan nan nan nan nan nan nan nan nan 267 273 nan 255 nan nan 251 247 249 247 248 255 nan nan
nan nan nan nan nan nan nan nan 256 250 nan nan nan nan nan nan nan nan nan nan nan nan nan nan nan 244 245 242 245 nan nan nan nan
nan nan nan nan nan nan 251 235 246 248 nan nan nan nan nan nan nan nan nan nan nan 243 nan nan nan 244 nan nan 243 244 241 nan 254
nan nan nan nan nan nan 234 236 252 252 nan nan nan nan nan nan nan nan nan nan nan nan nan nan 244 nan nan 249 246 nan 243 246 nan
nan nan nan nan nan nan 229 243 264 268 nan nan nan nan nan nan nan nan nan nan nan nan nan nan nan nan nan nan nan nan nan nan nan
nan nan nan 270 248 241 242 251 269 266 nan nan nan nan nan nan nan nan nan nan nan nan nan nan nan nan nan nan nan nan nan nan nan
nan nan nan nan 258 253 256 256 265 278 266 nan nan nan nan nan nan nan nan nan nan nan nan nan nan nan nan nan nan nan nan nan nan